Tracking 20232 objects as of 20-Jan-2020
HD Live streaming from Space Station
objects crossing your sky now

YUNHAI 2 1

Track YUNHAI 2 1 now!
10-day predictions


NORAD ID: 43909
Int'l Code: 2018-112A
Perigee: 806.7 km
Apogee: 807.0 km
Inclination: 50.0 °
Period: 100.9 minutes
Semi major axis: 7177 km
RCS: Unknown
Launch date: December 29, 2018
Source: People's Republic of China (PRC)
Launch site: Jiuquan Satellite Launch Center, China (JSC)
aabbcc
Your satellite tracking list
Your tracking list is empty




NASA's NSSDC Master Catalog

Two Line Element Set (TLE):
1 43909U 18112A   20020.43045709 -.00000227  00000-0 -26422-4 0  9997
2 43909  50.0121 241.4763 0000248  77.9039 282.1905 14.27620557 56751
Source of the keplerian elements: AFSPC